Simultaneous Nadir Overpasses (SNOs) Predictions

Prediction of SNOs between GOES-17 and AQUA Satellite Orbit:

Table of predicted SNOs for the next 14.0 days since TLE Epoch: 9/28/2024
Index Date Time (GOES-17) GOES-17 Lat,Lon AQUA Lat,Lon Distance(km) Time Diff (sec)
1 09/28/2024 21:00:33 0.01,-104.70 0.97,-100.36 494.89 80
2 09/29/2024 09:20:22 -0.01,-104.70 0.10,-105.14 50.63 80
3 10/01/2024 09:00:00 -0.01,-104.71 -0.87,-100.82 442.88 80
4 10/01/2024 21:19:58 0.01,-104.71 -0.19,-105.65 106.64 80
5 10/03/2024 21:04:53 0.00,-104.72 0.72,-101.30 388.08 80
6 10/04/2024 09:24:41 -0.00,-104.72 0.28,-106.10 156.22 80
7 10/06/2024 09:04:15 0.02,-104.73 -0.62,-101.75 339.02 80
8 10/06/2024 21:24:11 -0.02,-104.72 -0.43,-106.57 210.78 80
9 10/08/2024 21:09:03 -0.03,-104.72 0.53,-102.22 284.99 80
10 10/09/2024 09:28:50 0.03,-104.73 0.54,-107.00 258.48 80
11 10/11/2024 09:08:20 0.03,-104.73 -0.42,-102.64 237.36 80
12 10/11/2024 21:28:16 -0.03,-104.71 -0.63,-107.46 312.81 80
